Location: Unspecified
(43.4354°N, 0.0000°E)
Time: 12:47:30
(UTC+00:00)

Transit 2A - Pass Details

Date: 17 June 2019
Orbit: 596 x 962 km, 66.7° (Epoch: 16 August)

Event Time Altitude Azimuth Distance (km) Brightness Sun altitude
Rises 01:29:45 0° 208° (SSW) 3,593 - -20.1°
Reaches altitude 10° 01:32:16 10° 208° (SSW) 2,672 - -20.0°
Exits shadow 01:35:40 35° 207° (SSW) 1,511 6.9 -19.7°
Maximum altitude 01:38:37 87° 120° (ESE) 969 6.4 -19.5°
Drops below altitude 10° 01:44:57 10° 32° (NNE) 2,669 10.0 -19.0°
Sets 01:47:27 0° 32° (NNE) 3,588 11.1 -18.8°
